KD4PYR Weather Reports


Display with metric or nautical units.
time (UTC)temp
F
wind
direction
speed
MPH
gust
MPH
rain 1hr
in
rain 24hr
in
rain mn
in
humidity
%
barometer
mb
20260505052908 64 180 3.0 10.0 0.00 0.00 0.00 63 1004.5
20260505051838 65 169 4.0 8.0 0.00 0.00 0.00 62 1004.5
20260505050830 65 165 4.0 8.0 0.00 0.00 0.00 62 1004.6
20260505040900 66 194 3.0 10.0 0.00 0.00 0.00 62 1005.0
20260505035822 65 195 3.0 5.0 0.00 0.00 0.00 63 1005.1
20260505034855 65 183 4.0 7.0 0.00 0.00 0.00 63 1005.1
20260505033828 65 184 3.0 5.0 0.00 0.00 0.00 64 1005.1
20260505032840 65 182 2.0 7.0 0.00 0.00 0.00 64 1005.1
20260505031838 66 180 2.0 7.0 0.00 0.00 0.00 63 1005.0
20260505030829 66 162 3.0 5.0 0.00 0.00 0.00 63 1004.9
20260505025834 66 171 3.0 5.0 0.00 0.00 0.00 63 1004.9
20260505024815 66 155 3.0 7.0 0.00 0.00 0.00 62 1004.7
20260505023832 67 165 3.0 6.0 0.00 0.00 0.00 62 1004.6
20260505022825 67 146 2.0 5.0 0.00 0.00 0.00 62 1004.5
20260505021816 67 198 3.0 7.0 0.00 0.00 0.00 62 1004.4
20260505020852 67 192 3.0 6.0 0.00 0.00 0.00 61 1004.3
20260505015814 67 173 3.0 7.0 0.00 0.00 0.00 61 1004.0
20260505014839 68 173 2.0 6.0 0.00 0.00 0.00 60 1003.7
20260505013832 68 170 2.0 6.0 0.00 0.00 0.00 60 1003.7
20260505012826 68 175 2.0 8.0 0.00 0.00 0.00 60 1003.7
20260505011816 68 192 2.0 5.0 0.00 0.00 0.00 59 1003.7
20260505010835 69 188 2.0 6.0 0.00 0.00 0.00 59 1003.6
20260505005820 69 180 2.0 8.0 0.00 0.01 0.00 59 1003.5
20260505004912 69 177 2.0 5.0 0.00 0.01 0.00 59 1003.6
20260505003843 70 190 1.0 7.0 0.00 0.01 0.00 58 1003.5
20260505002833 70 201 3.0 10.0 0.00 0.01 0.00 58 1003.6
20260505001826 71 189 3.0 7.0 0.00 0.01 0.00 57 1003.8
20260505000844 71 194 3.0 10.0 0.00 0.01 0.00 56 1003.8
20260504235827 71 190 4.0 7.0 0.00 0.01 0.00 55 1003.9
20260504234850 71 183 3.0 7.0 0.00 0.01 0.00 55 1004.0
20260504233843 72 183 2.0 6.0 0.00 0.01 0.00 55 1004.1
20260504232836 72 169 4.0 13.0 0.00 0.01 0.00 53 1004.3
20260504231829 72 159 4.0 8.0 0.00 0.01 0.00 52 1004.5
20260504230846 73 162 3.0 11.0 0.00 0.01 0.00 51 1004.5
20260504225850 73 169 7.0 14.0 0.00 0.01 0.00 50 1004.6
20260504224830 73 169 4.0 12.0 0.00 0.01 0.00 50 1004.6
20260504223851 73 144 5.0 12.0 0.00 0.01 0.00 50 1004.6
20260504222851 74 190 5.0 12.0 0.00 0.01 0.00 49 1004.7
20260504221841 74 180 4.0 12.0 0.00 0.01 0.00 49 1004.8
20260504220831 74 173 6.0 17.0 0.00 0.01 0.00 48 1004.7
20260504215833 74 194 5.0 13.0 0.00 0.01 0.00 49 1004.8
20260504214836 74 193 4.0 11.0 0.00 0.01 0.00 49 1004.8
20260504213832 75 185 5.0 10.0 0.00 0.01 0.00 52 1004.8
20260504212850 75 192 6.0 10.0 0.00 0.01 0.00 51 1004.8
20260504211844 75 142 5.0 10.0 0.00 0.01 0.00 50 1005.0
20260504210832 75 200 7.0 12.0 0.00 0.01 0.00 51 1005.2
20260504205835 74 200 5.0 9.0 0.00 0.01 0.00 52 1005.3
20260504204841 74 178 3.0 7.0 0.00 0.01 0.00 53 1005.2
20260504203837 75 167 4.0 7.0 0.00 0.01 0.00 51 1005.3
20260504202829 74 209 2.0 7.0 0.00 0.01 0.00 52 1005.4
20260504201848 73 159 2.0 7.0 0.00 0.01 0.00 57 1005.6
20260504200839 72 154 2.0 7.0 0.00 0.01 0.00 56 1005.8
20260504195843 72 201 4.0 10.0 0.00 0.01 0.00 55 1006.0
20260504194846 73 192 6.0 13.0 0.00 0.01 0.00 54 1006.1
20260504193840 73 144 4.0 8.0 0.00 0.01 0.00 56 1006.3
20260504192832 74 202 3.0 10.0 0.00 0.01 0.00 55 1006.4
20260504191851 74 206 2.0 10.0 0.00 0.01 0.00 58 1006.4
20260504190841 72 175 1.0 7.0 0.00 0.01 0.00 61 1006.6
20260504185827 72 178 3.0 8.0 0.00 0.01 0.00 62 1006.7
20260504184848 70 174 1.0 6.0 0.00 0.01 0.00 65 1006.9
20260504183818 69 167 5.0 9.0 0.00 0.01 0.00 63 1007.1
20260504182856 69 161 5.0 10.0 0.00 0.01 0.00 62 1007.0
20260504181828 69 178 2.0 11.0 0.00 0.01 0.00 64 1006.8
20260504180844 68 188 5.0 10.0 0.00 0.01 0.00 64 1006.8
20260504175849 67 195 5.0 14.0 0.00 0.01 0.00 66 1006.6
20260504174850 67 184 7.0 18.0 0.00 0.01 0.00 65 1006.6
20260504173842 66 223 5.0 15.0 0.00 0.01 0.00 66 1006.8
20260504172901 65 182 3.0 9.0 0.00 0.01 0.00 68 1006.8
20260504171832 65 157 3.0 11.0 0.00 0.01 0.00 68 1006.8
20260504170825 64 178 5.0 10.0 0.00 0.01 0.00 68 1006.9
20260504150903 61 166 3.0 11.0 0.00 0.01 0.00 71 1007.4
20260504140818 58 178 2.0 8.0 0.00 0.01 0.00 73 1007.0
20260504081832 51 192 3.0 9.0 0.00 0.01 0.00 68 1008.7
20260504080850 51 166 4.0 8.0 0.00 0.01 0.00 68 1008.7